Location: Marcé
(47.5801°N, 0.3280°W)
Time: 17:47:54
(UTC+01:00)

Tiros 1 - Pass Details

Date: 09 December 2021
Orbit: 629 x 664 km, 48.4° (Epoch: 26 January)

Event Time Altitude Azimuth Distance (km) Brightness Sun altitude
Rises 20:12:34 0° 271° (W) 2,923 11.7 -29.8°
Reaches altitude 10° 20:14:53 10° 272° (W) 2,019 10.6 -30.1°
Enters shadow 20:17:48 38° 278° (W) 969 8.4 -30.6°
Maximum altitude 20:19:33 80° 360° (N) 654 - -30.9°
Drops below altitude 10° 20:24:15 10° 88° (E) 2,040 - -31.7°
Sets 20:26:36 0° 89° (E) 2,955 - -32.1°
